Location: Unnamed
(48.6007°N, 2.4808°E)
Time: 19:04:51
(UTC+02:00)

DX 1 - Pass Details

Date: 02 April 2023
Orbit: 615 x 625 km, 98.4° (Epoch: 04 June)

Event Time Altitude Azimuth Distance (km) Brightness Sun altitude
Rises 23:46:00 0° 20° (NNE) 2,899 ? -29.5°
Reaches altitude 10° 23:48:18 10° 28° (NNE) 1,988 ? -29.7°
Enters shadow 23:49:02 14° 32° (NNE) 1,714 ? -29.8°
